COSMOS 2251 DEB, 34001

Orbit data source: Space-Track

COSMOS 2251 DEB, 34001 is space debris in LEO originally from a launch on Wed, 16 Jun 1993 UTC launched from the Plesetsk Missile And Space Complex (PKMTR). The debris from Iridium 33, an American commercial communications satellite, has been tracked extensively since its accidental collision with the defunct Russian satellite Cosmos 2251 in 2009. This event, occurring at high speed in low Earth orbit (LEO), generated thousands of pieces of space debris, significantly increasing the risk of further collisions. The Iridium 33 debris cloud has impacted space traffic management and orbital debris mitigation strategies, making it a subject of ongoing study in space situational awareness.

Loading next visibility...
Identifier
34001, 1993-036GL
Orbit
LEO
Country
Flag of CISCIS
Related business
Manufacturer
Unknown
Mission
Spacecraft
Bus & Motor
Unknown
Mass
Unknown
Launch date (UTC)
1993-06-16 (32 years ago)
Launch vehicle
Unknown
Launch site
Plesetsk Missile And Space Complex (PKMTR)
Object type
Payload
Rocket body
Debris
Shape & HBR
Unknown shape, 0.1 m
Radar Cross Section
Small (<0.1 m²)

Expand to show TLE details & history
Last TLE update: 16 hours ago

TLE from 16 hours ago
0 COSMOS 2251 DEB
1 34001U 93036GL  25286.86359200  .00000765  00000-0  26631-3 0  9994
2 34001  74.0406  31.6774 0019325 132.9210 341.2132 14.37001575872867
Epoch: 2025-10-13T20:43Z
TLE epoch observation values (Epoch: 2025-10-13T20:43:34.348Z)
Latitude
61.49492°
Longitude
-153.46255°
Altitude
765.512 km
Speed
7.484 km/s
True Right ascension
12h 00m 21s
True Declination
61° 21' 02"
Sunlit
Object was in daylight at epoch
Visualization orbit readout
Latitude
Unknown
Longitude
Unknown
Altitude
Unknown
Speed
Unknown
Apparent Right ascension
Unknown
Apparent Declination
Unknown
Sunlit
N/A
Visualization observer readout
Local Sidereal Time
07:33:13
Azimuth
Unknown
Elevation
Unknown
Doppler factor
Unknown
Orbital elements
Apogee altitude
779.851 km
Perigee altitude
752.239 km
Semi-major axis
7,144.182 km
Eccentricity
0.00193
Inclination
74.0406°
RAAN
31.6774°
Arg. of periapsis
132.921°
True anomaly
341.14172°
Mean anomaly
341.2132°
Eccentric anomaly
341.17748°
Mean motion
3.5943 °/min
Orbital period
100.16 mins
BSTAR
0.00026631

Documentation

Showing up to 5 results
|